Wind_Speed
16 17 19 21 22 23 23 22 22 22 22 23 22 20 19 18 19 19 18 19 20 20 20 20 20 20 20 20 20 20 19 18 17 17 17 17 17 18 18 19 18 18
17 18 19 21 23 24 24 24 23 21 21 23 23 20 18 18 19 19 18 19 21 21 20 20 20 20 20 20 20 20 20 20 19 18 18 17 17 17 18 18 19 19
18 18 19 22 24 25 25 25 24 22 22 23 25 22 19 19 20 19 19 20 22 22 22 20 20 20 20 20 20 20 21 21 21 20 19 18 17 17 17 18 19 20
16 17 17 19 21 23 25 24 24 25 24 23 23 24 23 21 20 20 20 22 23 24 24 22 22 21 21 21 21 21 21 22 22 21 21 20 18 18 17 17 18 19
15 15 14 14 17 20 22 23 24 26 25 23 24 26 26 25 23 20 20 23 24 24 25 25 24 23 22 22 22 22 22 23 23 23 22 21 20 19 18 18 18 18
15 14 13 13 15 16 19 23 25 26 25 25 26 26 26 25 23 22 20 23 25 24 24 25 25 25 24 24 24 23 23 23 23 24 23 23 22 21 20 19 19 19
17 17 17 17 16 15 16 20 23 24 23 24 25 25 25 24 24 23 20 21 24 24 23 24 25 25 26 25 25 25 24 24 24 24 24 24 23 22 21 21 21 20
17 17 18 18 17 16 15 15 19 24 24 23 23 22 23 23 25 26 23 21 23 24 24 24 24 25 25 25 25 25 25 25 24 24 24 24 23 23 23 23 23 22
15 14 15 17 16 15 14 12 13 19 23 22 22 22 22 23 25 27 26 25 24 24 24 25 25 25 25 25 25 25 25 25 25 25 25 24 24 24 24 24 24 24
15 15 16 17 17 16 14 12 9 11 16 20 21 21 22 22 24 25 26 26 26 25 26 26 25 25 25 25 25 26 26 26 25 26 26 26 26 26 26 25 25 25
15 17 19 20 19 16 13 10 8 8 9 13 18 21 22 22 23 25 25 26 26 27 27 27 26 25 24 24 25 25 26 26 26 26 27 28 28 28 28 27 27 26
15 17 20 21 19 17 14 11 9 10 10 9 12 17 21 22 23 24 24 24 25 26 27 26 25 24 24 24 25 25 26 27 27 27 28 29 29 29 29 29 29 28
15 15 17 19 18 17 16 14 12 12 13 11 9 11 15 19 21 23 23 23 24 25 24 24 23 24 25 26 26 27 27 28 28 29 29 29 29 29 30 30 30 30
14 13 15 17 17 17 17 17 16 14 12 11 9 8 9 13 16 20 22 23 23 22 22 23 24 26 26 27 28 28 29 30 30 30 30 30 30 30 30 30 31 31
16 14 16 17 16 16 16 17 17 16 13 10 9 8 7 8 11 14 17 20 21 21 21 23 24 25 26 27 28 29 29 30 30 30 30 31 31 32 32 31 31 31
18 17 17 17 16 15 14 14 15 16 15 13 11 10 9 9 10 12 13 15 17 18 20 22 22 23 24 26 27 28 29 29 30 30 31 31 32 33 33 33 33 33
20 19 18 19 18 17 15 13 13 13 13 13 12 12 12 12 12 13 13 13 14 15 18 19 19 20 22 23 24 25 26 27 28 29 30 31 32 32 33 33 33 33
24 22 21 21 21 20 18 16 15 14 13 13 13 13 14 14 15 15 15 15 15 16 16 17 17 18 19 21 22 22 23 24 25 26 27 28 30 31 32 32 32 32
29 26 24 23 24 23 22 20 18 16 15 14 14 14 15 16 16 16 17 16 16 17 17 18 18 19 19 20 21 21 22 22 23 23 24 25 26 28 29 30 30 30
33 31 29 27 26 25 25 24 22 20 18 17 16 16 16 16 17 17 17 17 17 17 18 18 19 19 19 20 21 22 22 22 22 23 23 24 25 26 27 28 29 30
35 35 34 31 29 26 25 25 23 22 21 20 19 18 18 18 18 18 18 18 18 18 18 18 19 18 18 19 21 22 22 22 22 23 24 24 25 26 27 28 29 29
37 37 37 34 31 28 26 25 24 24 24 23 22 21 20 19 19 19 19 19 19 20 19 20 20 19 19 19 20 21 21 22 23 24 24 25 26 26 27 27 28 28
38 38 38 36 34 31 30 29 28 26 25 25 25 24 22 21 20 20 21 21 21 21 20 21 21 21 20 20 21 21 21 22 23 24 25 25 26 27 27 26 27 28
39 39 39 37 35 33 31 31 31 29 28 27 28 27 26 23 22 21 22 22 23 22 22 21 22 21 21 21 21 21 21 22 23 24 25 25 26 27 27 27 27 27
39 40 40 37 35 33 31 30 30 31 31 30 30 30 29 27 25 24 24 23 24 23 23 23 23 22 21 21 21 21 21 21 23 23 24 26 27 27 27 27 27 28
40 40 40 38 36 34 31 30 31 31 31 31 31 30 30 30 28 27 27 26 26 25 24 25 25 24 23 22 22 21 21 21 22 22 24 26 26 26 26 27 28 29
Wind_Direction
269 252 240 240 244 241 237 239 242 237 233 236 236 232 230 229 226 221 217 217 218 219 222 224 225 227 230 232 233 232 233 233 233 234 236 235 231 229 229 228 227 228
288 272 260 255 252 247 240 239 240 239 237 235 233 231 230 231 230 223 217 217 217 216 219 223 225 227 231 233 234 235 236 236 236 236 238 238 234 231 232 231 230 230
300 285 271 262 257 254 249 242 237 238 240 235 229 226 226 227 227 221 217 217 217 216 215 218 221 225 229 232 234 236 237 238 238 238 239 241 239 236 233 233 232 232
298 290 280 270 264 258 252 246 238 235 236 235 229 226 226 226 222 219 218 217 217 216 214 213 216 219 223 228 232 234 236 238 238 238 239 241 242 241 238 236 233 232
291 286 285 281 275 265 255 250 243 238 236 233 230 228 228 228 224 221 222 219 217 217 216 214 213 215 219 223 228 231 233 235 237 237 238 239 241 242 242 241 239 235
302 304 308 302 294 281 264 253 246 243 239 232 229 228 227 227 224 222 225 223 219 218 219 219 217 216 217 220 224 228 230 232 234 236 237 239 239 240 242 243 243 242
318 326 329 320 313 302 282 261 250 247 245 237 233 232 229 228 226 224 225 223 218 217 219 222 223 223 222 221 223 225 228 231 233 236 237 239 240 239 240 242 243 244
325 331 331 324 318 312 300 277 255 250 249 244 239 235 231 230 230 228 227 225 221 218 220 222 225 227 228 227 227 227 228 230 232 236 238 240 242 241 241 241 242 244
323 322 320 321 322 320 315 303 270 253 251 248 243 238 233 231 231 231 233 233 228 224 224 224 225 227 228 230 232 232 232 232 233 235 237 239 241 242 242 241 242 244
323 314 308 313 324 330 329 330 316 276 256 247 242 240 238 235 232 233 234 234 231 228 228 228 227 228 228 230 232 234 235 235 235 236 237 239 240 242 243 242 242 243
331 321 311 310 318 327 331 337 342 327 289 258 244 239 239 238 236 234 233 232 232 231 231 232 232 232 232 233 234 236 237 238 237 237 237 239 240 242 244 245 244 243
335 327 320 320 323 326 328 331 337 341 335 306 264 244 239 238 237 236 234 231 230 231 232 234 236 237 238 238 239 240 241 241 242 241 240 239 240 242 244 247 247 247
337 328 322 324 329 332 331 330 334 340 341 330 301 264 248 243 240 240 238 235 234 234 234 234 236 237 238 239 239 239 240 241 242 243 243 242 242 242 243 245 248 249
337 326 322 326 333 338 336 333 333 338 341 332 317 295 268 255 249 246 244 243 241 240 238 236 235 235 236 238 238 239 239 240 241 243 244 244 245 245 244 245 246 248
334 326 322 324 331 338 338 335 331 331 334 329 316 306 292 277 265 256 252 250 247 245 242 240 239 240 240 242 242 243 243 243 244 245 245 246 246 247 247 247 247 247
330 328 322 319 323 328 329 328 326 324 324 322 314 305 296 287 279 271 265 262 259 255 250 248 248 249 248 248 248 249 248 248 248 248 248 247 248 249 250 250 249 248
317 319 315 310 311 313 311 309 308 309 311 311 307 301 293 286 281 277 274 272 269 264 260 259 260 259 257 256 254 253 252 251 251 250 250 249 249 250 251 252 252 250
304 306 304 300 301 304 303 298 292 291 293 293 292 289 285 281 278 276 274 273 270 267 266 267 265 262 259 258 256 254 251 250 250 249 249 249 250 250 251 252 252 252
296 298 296 293 292 293 295 292 285 279 278 280 281 279 277 275 274 273 272 271 269 268 267 266 264 260 257 255 254 252 248 245 245 247 248 248 249 250 250 251 251 251
290 293 292 289 285 285 288 289 284 275 269 269 271 271 271 271 270 270 270 268 267 265 264 265 265 263 260 257 255 254 250 246 245 246 248 249 249 250 250 251 252 253
286 288 288 286 282 282 285 288 287 280 270 264 263 264 265 267 268 267 265 264 263 262 261 262 264 264 262 259 257 257 255 252 251 252 252 253 253 253 252 252 253 254
282 283 283 282 280 279 279 279 280 279 272 265 261 261 261 262 264 266 265 264 262 261 261 260 261 262 261 259 258 258 257 256 255 256 256 256 257 257 256 256 256 256
279 279 279 279 278 276 273 270 269 271 271 267 262 259 258 257 259 262 264 264 263 261 261 261 260 260 260 260 259 259 259 258 257 257 257 256 257 257 258 258 259 260
276 275 275 277 277 276 274 271 266 264 266 266 264 260 257 255 256 257 258 260 261 261 260 260 260 259 259 260 261 262 263 263 262 262 262 261 260 260 260 259 259 259
274 273 273 275 276 276 276 273 269 265 263 262 263 262 259 256 254 255 256 256 258 259 259 258 257 256 256 258 260 262 263 264 265 266 267 266 265 265 265 265 264 262
271 271 271 271 272 272 271 269 268 268 265 262 261 262 261 258 255 255 256 257 257 257 258 258 257 256 255 256 258 258 259 260 263 265 265 266 266 266 265 265 265 264
Height
5883 5883 5882 5882 5883 5883 5882 5882 5882 5884 5885 5886 5888 5889 5891 5892 5893 5894 5894 5896 5897 5900 5901 5903 5905 5906 5908 5909 5911 5912 5913 5915 5916 5917 5919 5920 5921 5922 5923 5923 5924 5925
5881 5881 5881 5881 5881 5880 5879 5879 5881 5883 5883 5883 5884 5886 5887 5890 5890 5890 5891 5893 5895 5897 5900 5901 5903 5905 5906 5908 5909 5910 5912 5913 5915 5916 5917 5918 5920 5921 5921 5922 5923 5924
5879 5879 5879 5879 5879 5879 5880 5879 5880 5882 5882 5881 5882 5884 5885 5887 5887 5887 5888 5890 5893 5895 5897 5899 5901 5903 5904 5906 5907 5909 5910 5911 5913 5914 5915 5917 5918 5919 5920 5921 5922 5923
5877 5877 5877 5877 5877 5878 5879 5880 5880 5879 5879 5880 5881 5883 5884 5885 5885 5886 5886 5888 5890 5893 5895 5897 5898 5900 5901 5903 5905 5906 5908 5909 5911 5912 5914 5915 5916 5917 5919 5920 5921 5922
5875 5875 5876 5876 5876 5876 5877 5878 5878 5877 5876 5878 5880 5881 5882 5883 5884 5885 5885 5886 5888 5890 5892 5894 5896 5897 5898 5900 5901 5903 5905 5907 5908 5910 5911 5913 5914 5915 5917 5918 5919 5920
5874 5874 5874 5874 5873 5874 5874 5875 5875 5875 5876 5876 5878 5879 5880 5882 5883 5884 5885 5885 5886 5888 5890 5892 5894 5895 5896 5897 5899 5900 5902 5904 5905 5907 5909 5910 5912 5913 5914 5916 5917 5918
5875 5874 5873 5872 5872 5872 5872 5873 5873 5874 5875 5875 5877 5879 5879 5880 5882 5882 5884 5884 5883 5885 5888 5890 5892 5893 5894 5895 5896 5898 5899 5901 5903 5905 5906 5908 5909 5911 5912 5913 5914 5915
5876 5875 5873 5872 5872 5872 5871 5871 5871 5872 5873 5874 5876 5878 5878 5879 5880 5880 5881 5881 5881 5883 5885 5887 5889 5891 5892 5893 5894 5896 5897 5899 5901 5902 5904 5905 5907 5908 5909 5910 5911 5912
5876 5874 5873 5872 5872 5872 5871 5870 5869 5869 5870 5872 5874 5875 5876 5877 5877 5878 5879 5879 5879 5881 5883 5884 5886 5888 5890 5891 5893 5894 5895 5897 5898 5900 5901 5903 5904 5905 5906 5907 5908 5909
5876 5873 5871 5870 5870 5870 5870 5869 5868 5868 5868 5870 5871 5873 5873 5874 5875 5876 5877 5877 5878 5879 5880 5882 5884 5886 5887 5889 5890 5892 5893 5895 5896 5897 5899 5900 5901 5902 5903 5904 5905 5907
5876 5872 5869 5868 5868 5869 5869 5869 5868 5867 5867 5867 5868 5869 5870 5871 5872 5873 5874 5875 5875 5877 5878 5880 5882 5884 5886 5887 5889 5890 5891 5892 5894 5895 5896 5896 5897 5898 5900 5901 5902 5903
5877 5874 5871 5868 5868 5867 5867 5867 5867 5866 5866 5865 5866 5866 5867 5868 5869 5870 5871 5872 5873 5874 5876 5878 5880 5882 5884 5885 5887 5888 5889 5890 5891 5891 5892 5893 5894 5895 5897 5898 5899 5900
5878 5877 5874 5871 5870 5868 5866 5865 5865 5865 5864 5864 5864 5864 5865 5866 5867 5868 5868 5869 5870 5871 5873 5875 5877 5878 5879 5881 5882 5884 5885 5886 5887 5888 5889 5890 5891 5892 5893 5894 5895 5896
5878 5877 5874 5872 5870 5869 5867 5865 5863 5863 5864 5864 5863 5863 5863 5864 5865 5865 5866 5867 5868 5869 5871 5872 5873 5873 5875 5876 5877 5879 5880 5881 5882 5884 5885 5886 5887 5888 5889 5891 5892 5893
5875 5873 5871 5869 5868 5868 5866 5865 5863 5863 5863 5864 5864 5863 5863 5863 5863 5864 5864 5865 5867 5868 5869 5869 5869 5871 5872 5873 5874 5875 5876 5878 5879 5880 5881 5882 5883 5884 5885 5886 5888 5889
5870 5869 5868 5867 5866 5866 5865 5865 5864 5863 5863 5863 5863 5863 5863 5862 5862 5863 5863 5864 5866 5867 5867 5868 5869 5870 5870 5871 5872 5873 5874 5875 5876 5877 5878 5879 5880 5880 5881 5882 5883 5885
5865 5865 5865 5864 5864 5864 5864 5863 5863 5862 5862 5862 5861 5861 5861 5861 5861 5862 5862 5863 5864 5865 5866 5866 5868 5868 5869 5869 5870 5871 5872 5873 5873 5874 5875 5876 5876 5877 5877 5878 5879 5881
5862 5863 5863 5861 5861 5861 5861 5861 5861 5860 5860 5860 5859 5859 5859 5859 5860 5860 5860 5861 5862 5862 5863 5864 5865 5865 5866 5866 5867 5868 5869 5869 5870 5870 5871 5872 5872 5873 5874 5874 5875 5876
5859 5860 5860 5859 5858 5857 5857 5857 5858 5858 5857 5857 5857 5857 5857 5858 5858 5858 5858 5859 5860 5860 5860 5861 5861 5862 5862 5863 5863 5864 5865 5866 5866 5866 5867 5868 5868 5869 5870 5871 5871 5872
5855 5856 5856 5856 5855 5855 5854 5854 5854 5854 5854 5854 5854 5855 5855 5855 5856 5856 5856 5856 5857 5857 5858 5858 5858 5859 5859 5859 5860 5860 5861 5862 5862 5863 5863 5863 5864 5865 5866 5866 5867 5867
5852 5851 5851 5852 5852 5852 5853 5853 5852 5851 5851 5852 5852 5852 5852 5853 5853 5853 5853 5853 5853 5854 5854 5854 5855 5855 5856 5856 5857 5857 5858 5859 5859 5859 5859 5860 5860 5861 5861 5862 5863 5863
5848 5847 5846 5847 5848 5849 5850 5850 5849 5848 5848 5848 5848 5849 5849 5849 5850 5850 5850 5850 5850 5850 5851 5851 5851 5852 5852 5853 5854 5854 5855 5856 5856 5856 5856 5857 5857 5857 5858 5859 5859 5860
5843 5842 5841 5841 5842 5844 5845 5845 5845 5844 5844 5844 5845 5846 5846 5846 5846 5847 5847 5847 5847 5847 5848 5848 5848 5848 5849 5850 5850 5851 5852 5853 5853 5853 5853 5854 5854 5854 5855 5855 5856 5856
5837 5836 5836 5836 5837 5838 5839 5839 5840 5840 5839 5840 5840 5841 5842 5842 5843 5843 5844 5844 5844 5844 5845 5844 5845 5845 5846 5847 5847 5848 5849 5850 5850 5851 5851 5851 5851 5851 5852 5853 5853 5853
5831 5830 5830 5831 5833 5833 5834 5835 5835 5835 5835 5836 5836 5835 5836 5837 5839 5839 5840 5841 5841 5841 5842 5841 5841 5842 5843 5843 5844 5845 5846 5847 5847 5847 5848 5848 5848 5849 5849 5849 5849 5850
5826 5825 5825 5826 5827 5828 5829 5830 5830 5831 5831 5832 5831 5831 5831 5832 5834 5835 5835 5836 5837 5838 5838 5838 5838 5838 5839 5840 5841 5841 5842 5843 5843 5844 5844 5844 5844 5845 5845 5845 5845 5845